| time (UTC) | temp F | wind direction | speed knots | gust knots | rain 1hr in | rain 24hr in | rain mn in | humidity % | barometer mb |
| 20260508222042 | 84 | 4 | 5.2 | 7.8 | 0.00 | 0.00 | 0.00 | 17 | 1013.5 |
| 20260508221538 | 84 | 46 | 1.7 | 7.0 | 0.00 | 0.00 | 0.00 | 17 | 1013.3 |
| 20260508221033 | 83 | 44 | 4.3 | 8.7 | 0.00 | 0.00 | 0.00 | 17 | 1013.3 |
| 20260508220531 | 83 | 57 | 9.6 | 13.9 | 0.00 | 0.00 | 0.00 | 16 | 1013.3 |
| 20260508220027 | 83 | 49 | 7.8 | 13.0 | 0.00 | 0.00 | 0.00 | 17 | 1013.5 |
| 20260508215524 | 84 | 49 | 5.2 | 12.2 | 0.00 | 0.00 | 0.00 | 17 | 1013.3 |
| 20260508215020 | 85 | 62 | 5.2 | 7.0 | 0.00 | 0.00 | 0.00 | 16 | 1013.6 |
| 20260508214518 | 83 | 50 | 4.3 | 12.2 | 0.00 | 0.00 | 0.00 | 17 | 1013.3 |
| 20260508214014 | 85 | 251 | 1.7 | 5.2 | 0.00 | 0.00 | 0.00 | 16 | 1013.6 |
| 20260508213512 | 85 | 23 | 9.6 | 13.0 | 0.00 | 0.00 | 0.00 | 16 | 1013.7 |
| 20260508213007 | 83 | 52 | 4.3 | 8.7 | 0.00 | 0.00 | 0.00 | 16 | 1013.5 |
| 20260508212503 | 84 | 57 | 3.5 | 6.1 | 0.00 | 0.00 | 0.00 | 16 | 1013.6 |
| 20260508212000 | 85 | 329 | 3.5 | 6.1 | 0.00 | 0.00 | 0.00 | 16 | 1013.6 |
| 20260508211456 | 84 | 56 | 5.2 | 6.1 | 0.00 | 0.00 | 0.00 | 16 | 1013.7 |
| 20260508210953 | 85 | 345 | 3.5 | 6.1 | 0.00 | 0.00 | 0.00 | 16 | 1013.7 |
| 20260508210449 | 84 | 351 | 3.5 | 5.2 | 0.00 | 0.00 | 0.00 | 17 | 1013.8 |
| 20260508205945 | 84 | 9 | 8.7 | 12.2 | 0.00 | 0.00 | 0.00 | 16 | 1013.6 |
| 20260508205443 | 83 | 33 | 0.9 | 3.5 | 0.00 | 0.00 | 0.00 | 17 | 1013.8 |
| 20260508204939 | 84 | 47 | 3.5 | 7.0 | 0.00 | 0.00 | 0.00 | 17 | 1013.9 |
| 20260508204437 | 85 | 341 | 5.2 | 7.0 | 0.00 | 0.00 | 0.00 | 17 | 1013.9 |
| 20260508203932 | 83 | 326 | 4.3 | 18.2 | 0.00 | 0.00 | 0.00 | 17 | 1013.8 |
| 20260508203428 | 83 | 38 | 3.5 | 7.8 | 0.00 | 0.00 | 0.00 | 17 | 1014.1 |
| 20260508202924 | 85 | 46 | 11.3 | 14.8 | 0.00 | 0.00 | 0.00 | 16 | 1013.9 |
| 20260508202422 | 83 | 319 | 4.3 | 7.8 | 0.00 | 0.00 | 0.00 | 16 | 1014.1 |
| 20260508201918 | 83 | 332 | 6.1 | 12.2 | 0.00 | 0.00 | 0.00 | 16 | 1014.0 |
| 20260508201415 | 84 | 328 | 1.7 | 6.1 | 0.00 | 0.00 | 0.00 | 17 | 1014.1 |
| 20260508200912 | 83 | 336 | 2.6 | 7.8 | 0.00 | 0.00 | 0.00 | 17 | 1014.0 |
| 20260508200409 | 84 | 339 | 3.5 | 8.7 | 0.00 | 0.00 | 0.00 | 16 | 1013.9 |
| 20260508195904 | 83 | 69 | 5.2 | 13.0 | 0.00 | 0.00 | 0.00 | 17 | 1014.1 |
| 20260508195401 | 83 | 342 | 1.7 | 6.1 | 0.00 | 0.00 | 0.00 | 17 | 1014.0 |
| 20260508194857 | 84 | 45 | 2.6 | 8.7 | 0.00 | 0.00 | 0.00 | 16 | 1013.9 |
| 20260508194354 | 83 | 354 | 0.9 | 12.2 | 0.00 | 0.00 | 0.00 | 17 | 1014.1 |
| 20260508193851 | 84 | 14 | 5.2 | 11.3 | 0.00 | 0.00 | 0.00 | 16 | 1014.2 |
| 20260508193348 | 84 | 51 | 2.6 | 5.2 | 0.00 | 0.00 | 0.00 | 16 | 1014.0 |
| 20260508192844 | 84 | 6 | 1.7 | 5.2 | 0.00 | 0.00 | 0.00 | 16 | 1014.1 |
| 20260508192341 | 83 | 358 | 4.3 | 7.0 | 0.00 | 0.00 | 0.00 | 17 | 1014.1 |
| 20260508191838 | 84 | 71 | 2.6 | 7.0 | 0.00 | 0.00 | 0.00 | 16 | 1014.1 |
| 20260508191336 | 84 | 302 | 3.5 | 6.1 | 0.00 | 0.00 | 0.00 | 16 | 1014.2 |
| 20260508190832 | 83 | 295 | 5.2 | 8.7 | 0.00 | 0.00 | 0.00 | 17 | 1014.4 |
| 20260508190329 | 83 | 314 | 5.2 | 11.3 | 0.00 | 0.00 | 0.00 | 16 | 1014.2 |
| 20260508185825 | 83 | 67 | 0.0 | 11.3 | 0.00 | 0.00 | 0.00 | 17 | 1014.2 |
| 20260508185323 | 83 | 339 | 4.3 | 9.6 | 0.00 | 0.00 | 0.00 | 17 | 1014.1 |
| 20260508184820 | 81 | 284 | 3.5 | 5.2 | 0.00 | 0.00 | 0.00 | 18 | 1014.5 |
| 20260508184317 | 82 | 295 | 3.5 | 8.7 | 0.00 | 0.00 | 0.00 | 18 | 1014.4 |
| 20260508183814 | 81 | 263 | 1.7 | 7.0 | 0.00 | 0.00 | 0.00 | 17 | 1014.7 |
| 20260508183311 | 82 | 334 | 1.7 | 6.1 | 0.00 | 0.00 | 0.00 | 18 | 1014.7 |
| 20260508182806 | 82 | 269 | 1.7 | 3.5 | 0.00 | 0.00 | 0.00 | 17 | 1014.7 |
| 20260508182306 | 81 | 313 | 3.5 | 5.2 | 0.00 | 0.00 | 0.00 | 18 | 1014.7 |
| 20260508181759 | 82 | 285 | 3.5 | 5.2 | 0.00 | 0.00 | 0.00 | 18 | 1014.9 |
| 20260508181256 | 81 | 182 | 2.6 | 3.5 | 0.00 | 0.00 | 0.00 | 18 | 1014.8 |
| 20260508180753 | 81 | 319 | 0.0 | 8.7 | 0.00 | 0.00 | 0.00 | 18 | 1014.9 |
| 20260508180250 | 81 | 342 | 4.3 | 6.1 | 0.00 | 0.00 | 0.00 | 19 | 1014.9 |
| 20260508175746 | 80 | 318 | 6.1 | 7.8 | 0.00 | 0.00 | 0.00 | 20 | 1015.3 |
| 20260508175242 | 81 | 304 | 4.3 | 7.0 | 0.00 | 0.00 | 0.00 | 20 | 1015.3 |
| 20260508174741 | 82 | 288 | 1.7 | 5.2 | 0.00 | 0.00 | 0.00 | 20 | 1015.0 |
| 20260508174238 | 81 | 18 | 0.9 | 5.2 | 0.00 | 0.00 | 0.00 | 20 | 1015.2 |
| 20260508173734 | 80 | 350 | 1.7 | 2.6 | 0.00 | 0.00 | 0.00 | 22 | 1015.3 |
| 20260508173230 | 80 | 246 | 2.6 | 5.2 | 0.00 | 0.00 | 0.00 | 21 | 1015.3 |
| 20260508172727 | 79 | 261 | 0.9 | 2.6 | 0.00 | 0.00 | 0.00 | 23 | 1015.5 |
| 20260508172224 | 78 | 195 | 0.0 | 2.6 | 0.00 | 0.00 | 0.00 | 24 | 1015.5 |
| 20260508171720 | 78 | 317 | 3.5 | 6.1 | 0.00 | 0.00 | 0.00 | 24 | 1015.6 |
| 20260508171217 | 77 | 316 | 2.6 | 8.7 | 0.00 | 0.00 | 0.00 | 25 | 1015.7 |
| 20260508170714 | 77 | 258 | 0.0 | 2.6 | 0.00 | 0.00 | 0.00 | 24 | 1015.5 |
| 20260508170212 | 77 | 326 | 4.3 | 7.0 | 0.00 | 0.00 | 0.00 | 24 | 1015.8 |
| 20260508165708 | 77 | 228 | 4.3 | 7.0 | 0.00 | 0.00 | 0.00 | 24 | 1015.8 |
| 20260508165206 | 78 | 51 | 3.5 | 6.1 | 0.00 | 0.00 | 0.00 | 25 | 1015.8 |
| 20260508164702 | 78 | 341 | 0.9 | 5.2 | 0.00 | 0.00 | 0.00 | 25 | 1015.7 |
| 20260508164159 | 77 | 295 | 1.7 | 6.1 | 0.00 | 0.00 | 0.00 | 24 | 1015.9 |
| 20260508163656 | 76 | 280 | 2.6 | 5.2 | 0.00 | 0.00 | 0.00 | 25 | 1015.8 |
| 20260508163154 | 76 | 252 | 3.5 | 7.8 | 0.00 | 0.00 | 0.00 | 25 | 1016.1 |
| 20260508162649 | 76 | 244 | 0.9 | 7.0 | 0.00 | 0.00 | 0.00 | 26 | 1016.1 |
| 20260508162146 | 75 | 304 | 2.6 | 7.0 | 0.00 | 0.00 | 0.00 | 27 | 1015.9 |
| 20260508161643 | 74 | 297 | 2.6 | 6.1 | 0.00 | 0.00 | 0.00 | 27 | 1016.1 |
| 20260508161141 | 74 | 299 | 0.9 | 7.0 | 0.00 | 0.00 | 0.00 | 28 | 1016.4 |
| 20260508160639 | 73 | 189 | 3.5 | 6.1 | 0.00 | 0.00 | 0.00 | 28 | 1016.2 |
| 20260508160136 | 73 | 224 | 0.9 | 7.8 | 0.00 | 0.00 | 0.00 | 29 | 1016.4 |
| 20260508155634 | 74 | 262 | 5.2 | 7.8 | 0.00 | 0.00 | 0.00 | 30 | 1016.3 |
| 20260508155130 | 73 | 237 | 1.7 | 7.8 | 0.00 | 0.00 | 0.00 | 32 | 1016.3 |
| 20260508154627 | 72 | 275 | 0.9 | 5.2 | 0.00 | 0.00 | 0.00 | 31 | 1016.4 |
| 20260508154123 | 72 | 310 | 3.5 | 5.2 | 0.00 | 0.00 | 0.00 | 30 | 1016.2 |
| 20260508153620 | 71 | 26 | 1.7 | 5.2 | 0.00 | 0.00 | 0.00 | 33 | 1016.2 |
| 20260508153117 | 70 | 345 | 1.7 | 9.6 | 0.00 | 0.00 | 0.00 | 34 | 1016.4 |
| 20260508152614 | 71 | 2 | 5.2 | 7.0 | 0.00 | 0.00 | 0.00 | 33 | 1016.2 |
| 20260508152109 | 70 | 40 | 2.6 | 6.1 | 0.00 | 0.00 | 0.00 | 38 | 1016.5 |
| 20260508151607 | 69 | 334 | 0.9 | 2.6 | 0.00 | 0.00 | 0.00 | 40 | 1016.5 |
| 20260508151104 | 69 | 306 | 6.1 | 7.8 | 0.00 | 0.00 | 0.00 | 42 | 1016.4 |
| 20260508150601 | 68 | 282 | 3.5 | 5.2 | 0.00 | 0.00 | 0.00 | 45 | 1016.5 |
| 20260508150056 | 69 | 279 | 1.7 | 3.5 | 0.00 | 0.00 | 0.00 | 45 | 1016.1 |
| 20260508145553 | 68 | 309 | 2.6 | 3.5 | 0.00 | 0.00 | 0.00 | 46 | 1016.1 |
| 20260508145049 | 66 | 262 | 1.7 | 6.1 | 0.00 | 0.00 | 0.00 | 49 | 1016.3 |
| 20260508144547 | 65 | 282 | 1.7 | 5.2 | 0.00 | 0.00 | 0.00 | 52 | 1016.3 |
| 20260508144044 | 66 | 228 | 0.9 | 5.2 | 0.00 | 0.00 | 0.00 | 52 | 1016.3 |
| 20260508143542 | 65 | 267 | 1.7 | 5.2 | 0.00 | 0.00 | 0.00 | 54 | 1016.4 |
| 20260508143039 | 64 | 249 | 2.6 | 3.5 | 0.00 | 0.00 | 0.00 | 54 | 1016.6 |
| 20260508142535 | 64 | 259 | 0.9 | 7.0 | 0.00 | 0.00 | 0.00 | 55 | 1016.5 |
| 20260508142032 | 63 | 319 | 1.7 | 6.1 | 0.00 | 0.00 | 0.00 | 58 | 1016.5 |
| 20260508141528 | 62 | 263 | 0.9 | 2.6 | 0.00 | 0.00 | 0.00 | 60 | 1016.5 |
| 20260508141026 | 61 | 290 | 3.5 | 5.2 | 0.00 | 0.00 | 0.00 | 62 | 1016.6 |
| 20260508140523 | 60 | 233 | 3.5 | 6.1 | 0.00 | 0.00 | 0.00 | 63 | 1016.8 |
| 20260508140020 | 60 | 279 | 1.7 | 6.1 | 0.00 | 0.00 | 0.00 | 65 | 1016.6 |
| 20260508135515 | 59 | 289 | 1.7 | 5.2 | 0.00 | 0.00 | 0.00 | 66 | 1016.7 |
| 20260508135012 | 59 | 300 | 1.7 | 5.2 | 0.00 | 0.00 | 0.00 | 67 | 1016.5 |
| 20260508134508 | 58 | 258 | 2.6 | 7.0 | 0.00 | 0.00 | 0.00 | 68 | 1016.4 |
| 20260508134006 | 58 | 231 | 2.6 | 6.1 | 0.00 | 0.00 | 0.00 | 69 | 1016.4 |
| 20260508133502 | 57 | 237 | 1.7 | 5.2 | 0.00 | 0.00 | 0.00 | 71 | 1016.5 |
| 20260508132959 | 56 | 232 | 4.3 | 6.1 | 0.00 | 0.00 | 0.00 | 72 | 1016.1 |
| 20260508132457 | 55 | 234 | 1.7 | 3.5 | 0.00 | 0.00 | 0.00 | 73 | 1016.2 |
| 20260508131954 | 54 | 255 | 3.5 | 3.5 | 0.00 | 0.00 | 0.00 | 74 | 1016.4 |
| 20260508131449 | 53 | 252 | 0.9 | 2.6 | 0.00 | 0.00 | 0.00 | 75 | 1016.3 |
| 20260508130946 | 53 | 273 | 0.9 | 2.6 | 0.00 | 0.00 | 0.00 | 75 | 1016.5 |
| 20260508130443 | 52 | 229 | 1.7 | 2.6 | 0.00 | 0.00 | 0.00 | 76 | 1016.5 |
| 20260508125939 | 52 | 255 | 0.0 | 1.7 | 0.00 | 0.00 | 0.00 | 77 | 1016.4 |
| 20260508125435 | 51 | 257 | 0.9 | 1.7 | 0.00 | 0.00 | 0.00 | 78 | 1016.4 |
| 20260508124933 | 51 | 253 | 0.9 | 1.7 | 0.00 | 0.00 | 0.00 | 78 | 1016.6 |
| 20260508124431 | 50 | 277 | 1.7 | 3.5 | 0.00 | 0.00 | 0.00 | 80 | 1016.5 |
| 20260508123928 | 51 | 275 | 0.9 | 3.5 | 0.00 | 0.00 | 0.00 | 79 | 1016.3 |
| 20260508123427 | 50 | 244 | 0.9 | 1.7 | 0.00 | 0.00 | 0.00 | 80 | 1015.9 |
| 20260508122923 | 50 | 263 | 0.9 | 1.7 | 0.00 | 0.00 | 0.00 | 80 | 1015.9 |
| 20260508122420 | 49 | 255 | 0.9 | 2.6 | 0.00 | 0.00 | 0.00 | 80 | 1016.2 |
| 20260508121917 | 49 | 249 | 0.0 | 0.0 | 0.00 | 0.00 | 0.00 | 82 | 1016.2 |
| 20260508121415 | 48 | 234 | 0.0 | 1.7 | 0.00 | 0.00 | 0.00 | 83 | 1015.8 |
| 20260508120912 | 48 | 240 | 0.0 | 1.7 | 0.00 | 0.00 | 0.00 | 83 | 1015.9 |
| 20260508120410 | 47 | 213 | 0.0 | 1.7 | 0.00 | 0.00 | 0.00 | 83 | 1016.1 |
| 20260508115907 | 47 | 243 | 0.9 | 1.7 | 0.00 | 0.00 | 0.00 | 82 | 1015.7 |
| 20260508115405 | 47 | 249 | 0.0 | 3.5 | 0.00 | 0.00 | 0.00 | 82 | 1015.6 |
| 20260508114901 | 48 | 252 | 0.0 | 0.9 | 0.00 | 0.00 | 0.00 | 82 | 1015.7 |
| 20260508114358 | 48 | 226 | 0.9 | 2.6 | 0.00 | 0.00 | 0.00 | 82 | 1015.8 |
| 20260508113855 | 48 | 216 | 0.9 | 0.9 | 0.00 | 0.00 | 0.00 | 82 | 1015.9 |
| 20260508113353 | 48 | 240 | 0.9 | 1.7 | 0.00 | 0.00 | 0.00 | 81 | 1015.6 |
| 20260508112849 | 48 | 235 | 1.7 | 1.7 | 0.00 | 0.00 | 0.00 | 81 | 1015.8 |
| 20260508112347 | 48 | 236 | 1.7 | 1.7 | 0.00 | 0.00 | 0.00 | 81 | 1015.9 |
| 20260508111843 | 48 | 232 | 0.9 | 1.7 | 0.00 | 0.00 | 0.00 | 81 | 1015.6 |
| 20260508111340 | 48 | 255 | 0.9 | 1.7 | 0.00 | 0.00 | 0.00 | 80 | 1015.8 |
| 20260508110837 | 49 | 250 | 0.9 | 0.9 | 0.00 | 0.00 | 0.00 | 80 | 1016.1 |
| 20260508110335 | 49 | 245 | 0.9 | 0.9 | 0.00 | 0.00 | 0.00 | 80 | 1015.9 |
| 20260508105835 | 49 | 293 | 0.0 | 2.6 | 0.00 | 0.00 | 0.00 | 79 | 1015.9 |
| 20260508105331 | 50 | 244 | 0.0 | 1.7 | 0.00 | 0.00 | 0.00 | 79 | 1015.9 |
| 20260508104828 | 50 | 248 | 0.9 | 2.6 | 0.00 | 0.00 | 0.00 | 80 | 1015.9 |
| 20260508104325 | 49 | 246 | 0.9 | 1.7 | 0.00 | 0.00 | 0.00 | 80 | 1016.1 |
| 20260508103822 | 49 | 235 | 1.7 | 2.6 | 0.00 | 0.00 | 0.00 | 79 | 1016.3 |
| 20260508103319 | 49 | 233 | 0.9 | 0.9 | 0.00 | 0.00 | 0.00 | 79 | 1016.3 |
| 20260508102817 | 49 | 245 | 0.9 | 1.7 | 0.00 | 0.00 | 0.00 | 78 | 1016.1 |
| 20260508102315 | 50 | 260 | 0.0 | 0.9 | 0.00 | 0.00 | 0.00 | 78 | 1016.1 |
| 20260508101812 | 50 | 251 | 0.9 | 0.9 | 0.00 | 0.00 | 0.00 | 77 | 1016.3 |
| 20260508101309 | 51 | 259 | 0.0 | 1.7 | 0.00 | 0.00 | 0.00 | 77 | 1016.3 |
| 20260508100807 | 51 | 213 | 1.7 | 2.6 | 0.00 | 0.00 | 0.00 | 76 | 1016.1 |
| 20260508100305 | 51 | 248 | 0.9 | 1.7 | 0.00 | 0.00 | 0.00 | 76 | 1016.2 |
| 20260508095800 | 51 | 245 | 0.9 | 5.2 | 0.00 | 0.00 | 0.00 | 75 | 1016.4 |
| 20260508095258 | 51 | 242 | 0.9 | 3.5 | 0.00 | 0.00 | 0.00 | 75 | 1016.2 |
| 20260508094755 | 52 | 225 | 1.7 | 3.5 | 0.00 | 0.00 | 0.00 | 75 | 1016.3 |
| 20260508094252 | 52 | 241 | 1.7 | 6.1 | 0.00 | 0.00 | 0.00 | 74 | 1016.2 |
| 20260508093749 | 52 | 194 | 2.6 | 6.1 | 0.00 | 0.00 | 0.00 | 74 | 1016.2 |
| 20260508093247 | 52 | 241 | 1.7 | 2.6 | 0.00 | 0.00 | 0.00 | 73 | 1016.5 |
| 20260508092743 | 52 | 191 | 5.2 | 7.0 | 0.00 | 0.00 | 0.00 | 73 | 1016.4 |
| 20260508092241 | 52 | 220 | 1.7 | 5.2 | 0.00 | 0.00 | 0.00 | 73 | 1016.5 |
| 20260508091739 | 52 | 234 | 3.5 | 6.1 | 0.00 | 0.00 | 0.00 | 73 | 1016.3 |
| 20260508091236 | 51 | 235 | 1.7 | 3.5 | 0.00 | 0.00 | 0.00 | 73 | 1016.4 |
| 20260508090734 | 51 | 229 | 1.7 | 2.6 | 0.00 | 0.00 | 0.00 | 73 | 1016.5 |
| 20260508090231 | 52 | 245 | 1.7 | 5.2 | 0.00 | 0.00 | 0.00 | 72 | 1016.8 |
| 20260508085727 | 52 | 239 | 1.7 | 5.2 | 0.00 | 0.00 | 0.00 | 71 | 1016.7 |
| 20260508085224 | 52 | 247 | 1.7 | 2.6 | 0.00 | 0.00 | 0.00 | 70 | 1016.8 |
| 20260508084720 | 52 | 197 | 1.7 | 3.5 | 0.00 | 0.00 | 0.00 | 69 | 1016.7 |
| 20260508084218 | 52 | 249 | 1.7 | 5.2 | 0.00 | 0.00 | 0.00 | 69 | 1016.6 |
| 20260508083715 | 52 | 213 | 2.6 | 3.5 | 0.00 | 0.00 | 0.00 | 69 | 1016.6 |
| 20260508083213 | 52 | 237 | 1.7 | 3.5 | 0.00 | 0.00 | 0.00 | 68 | 1016.7 |
| 20260508082707 | 52 | 249 | 2.6 | 3.5 | 0.00 | 0.00 | 0.00 | 67 | 1016.6 |
| 20260508082205 | 53 | 207 | 1.7 | 3.5 | 0.00 | 0.00 | 0.00 | 66 | 1016.8 |
| 20260508081702 | 53 | 170 | 1.7 | 5.2 | 0.00 | 0.00 | 0.00 | 65 | 1016.6 |
| 20260508081159 | 53 | 189 | 1.7 | 2.6 | 0.00 | 0.00 | 0.00 | 65 | 1016.6 |
| 20260508080656 | 53 | 210 | 1.7 | 7.0 | 0.00 | 0.00 | 0.00 | 64 | 1016.7 |
| 20260508080155 | 53 | 212 | 0.9 | 2.6 | 0.00 | 0.00 | 0.00 | 63 | 1017.0 |
| 20260508075650 | 53 | 145 | 2.6 | 6.1 | 0.00 | 0.00 | 0.00 | 63 | 1017.0 |
| 20260508075148 | 53 | 182 | 1.7 | 2.6 | 0.00 | 0.00 | 0.00 | 62 | 1017.0 |
| 20260508074645 | 53 | 123 | 2.6 | 3.5 | 0.00 | 0.00 | 0.00 | 61 | 1017.2 |
| 20260508074142 | 53 | 222 | 0.9 | 6.1 | 0.00 | 0.00 | 0.00 | 60 | 1017.2 |
| 20260508073639 | 53 | 164 | 2.6 | 3.5 | 0.00 | 0.00 | 0.00 | 60 | 1017.0 |
| 20260508073138 | 53 | 157 | 0.9 | 5.2 | 0.00 | 0.00 | 0.00 | 60 | 1017.0 |
| 20260508072633 | 53 | 222 | 1.7 | 3.5 | 0.00 | 0.00 | 0.00 | 59 | 1017.0 |
| 20260508072130 | 53 | 162 | 0.9 | 3.5 | 0.00 | 0.00 | 0.00 | 58 | 1017.1 |
| 20260508071628 | 54 | 170 | 2.6 | 3.5 | 0.00 | 0.00 | 0.00 | 58 | 1017.1 |
| 20260508071126 | 54 | 195 | 2.6 | 5.2 | 0.00 | 0.00 | 0.00 | 57 | 1016.8 |
| 20260508070623 | 55 | 225 | 1.7 | 3.5 | 0.00 | 0.00 | 0.00 | 56 | 1017.0 |
| 20260508070122 | 55 | 230 | 0.9 | 2.6 | 0.00 | 0.00 | 0.00 | 55 | 1017.1 |
| 20260508065618 | 55 | 186 | 2.6 | 3.5 | 0.00 | 0.00 | 0.00 | 55 | 1017.2 |
| 20260508065116 | 55 | 224 | 0.9 | 2.6 | 0.00 | 0.00 | 0.00 | 54 | 1017.1 |
| 20260508064614 | 55 | 217 | 1.7 | 3.5 | 0.00 | 0.00 | 0.00 | 54 | 1017.2 |
| 20260508064112 | 55 | 236 | 0.9 | 2.6 | 0.00 | 0.00 | 0.00 | 54 | 1017.3 |
| 20260508063609 | 55 | 156 | 0.9 | 1.7 | 0.00 | 0.00 | 0.00 | 53 | 1017.1 |
| 20260508063107 | 55 | 212 | 1.7 | 2.6 | 0.00 | 0.00 | 0.00 | 53 | 1017.1 |
| 20260508062604 | 56 | 185 | 0.9 | 1.7 | 0.00 | 0.00 | 0.00 | 53 | 1017.0 |
| 20260508062100 | 56 | 218 | 0.9 | 2.6 | 0.00 | 0.00 | 0.00 | 52 | 1017.0 |
| 20260508061558 | 56 | 172 | 0.9 | 1.7 | 0.00 | 0.00 | 0.00 | 51 | 1017.2 |
| 20260508061055 | 56 | 210 | 0.9 | 2.6 | 0.00 | 0.00 | 0.00 | 51 | 1017.1 |
| 20260508060551 | 57 | 256 | 0.9 | 2.6 | 0.00 | 0.00 | 0.00 | 50 | 1017.3 |
| 20260508060049 | 57 | 224 | 1.7 | 3.5 | 0.00 | 0.00 | 0.00 | 50 | 1017.2 |
| 20260508055545 | 58 | 233 | 1.7 | 2.6 | 0.00 | 0.00 | 0.00 | 49 | 1017.2 |
| 20260508055042 | 58 | 151 | 0.9 | 3.5 | 0.00 | 0.00 | 0.00 | 49 | 1017.4 |
| 20260508054538 | 59 | 251 | 4.3 | 5.2 | 0.00 | 0.00 | 0.00 | 48 | 1017.4 |
| 20260508054036 | 59 | 166 | 1.7 | 5.2 | 0.00 | 0.00 | 0.00 | 47 | 1017.1 |
| 20260508053532 | 60 | 257 | 4.3 | 5.2 | 0.00 | 0.00 | 0.00 | 47 | 1017.3 |
| 20260508053031 | 60 | 171 | 1.7 | 7.8 | 0.00 | 0.00 | 0.00 | 46 | 1017.3 |
| 20260508052527 | 60 | 149 | 2.6 | 5.2 | 0.00 | 0.00 | 0.00 | 46 | 1017.3 |
| 20260508052024 | 60 | 208 | 3.5 | 6.1 | 0.00 | 0.00 | 0.00 | 45 | 1017.2 |
| 20260508051520 | 61 | 150 | 1.7 | 5.2 | 0.00 | 0.00 | 0.00 | 44 | 1017.3 |
| 20260508051015 | 61 | 202 | 2.6 | 3.5 | 0.00 | 0.00 | 0.00 | 44 | 1017.4 |
| 20260508050512 | 61 | 147 | 3.5 | 6.1 | 0.00 | 0.00 | 0.00 | 43 | 1017.5 |
| 20260508050009 | 62 | 173 | 5.2 | 7.0 | 0.00 | 0.00 | 0.00 | 42 | 1017.4 |
| 20260508045505 | 62 | 164 | 2.6 | 6.1 | 0.00 | 0.00 | 0.00 | 42 | 1017.6 |
| 20260508045003 | 62 | 124 | 2.6 | 9.6 | 0.00 | 0.00 | 0.00 | 41 | 1017.5 |
| 20260508044501 | 62 | 161 | 6.1 | 8.7 | 0.00 | 0.00 | 0.00 | 41 | 1017.6 |
| 20260508043955 | 62 | 227 | 6.1 | 7.8 | 0.00 | 0.00 | 0.00 | 40 | 1017.6 |
| 20260508043453 | 62 | 188 | 5.2 | 7.0 | 0.00 | 0.00 | 0.00 | 39 | 1017.8 |
| 20260508042949 | 62 | 167 | 3.5 | 8.7 | 0.00 | 0.00 | 0.00 | 39 | 1017.5 |
| 20260508042447 | 62 | 205 | 3.5 | 6.1 | 0.00 | 0.00 | 0.00 | 38 | 1017.5 |
| 20260508041944 | 62 | 170 | 3.5 | 6.1 | 0.00 | 0.00 | 0.00 | 38 | 1017.9 |
| 20260508041440 | 62 | 202 | 3.5 | 6.1 | 0.00 | 0.00 | 0.00 | 38 | 1017.5 |
| 20260508040937 | 62 | 171 | 1.7 | 6.1 | 0.00 | 0.00 | 0.00 | 38 | 1017.6 |
| 20260508040434 | 62 | 181 | 3.5 | 5.2 | 0.00 | 0.00 | 0.00 | 37 | 1017.5 |
| 20260508035932 | 62 | 204 | 1.7 | 3.5 | 0.00 | 0.00 | 0.00 | 37 | 1017.4 |
| 20260508035429 | 62 | 205 | 2.6 | 5.2 | 0.00 | 0.00 | 0.00 | 37 | 1017.6 |
| 20260508034925 | 63 | 189 | 1.7 | 6.1 | 0.00 | 0.00 | 0.00 | 36 | 1017.3 |
| 20260508034423 | 63 | 158 | 1.7 | 6.1 | 0.00 | 0.00 | 0.00 | 36 | 1017.5 |
| 20260508033919 | 64 | 167 | 3.5 | 6.1 | 0.00 | 0.00 | 0.00 | 35 | 1017.5 |
| 20260508033417 | 64 | 152 | 1.7 | 3.5 | 0.00 | 0.00 | 0.00 | 35 | 1017.4 |
| 20260508032915 | 64 | 192 | 1.7 | 3.5 | 0.00 | 0.00 | 0.00 | 35 | 1017.4 |
| 20260508032412 | 64 | 188 | 4.3 | 6.1 | 0.00 | 0.00 | 0.00 | 34 | 1017.4 |
| 20260508031908 | 65 | 221 | 3.5 | 6.1 | 0.00 | 0.00 | 0.00 | 34 | 1017.3 |
| 20260508031407 | 65 | 166 | 2.6 | 6.1 | 0.00 | 0.00 | 0.00 | 34 | 1017.0 |
| 20260508030902 | 65 | 202 | 3.5 | 6.1 | 0.00 | 0.00 | 0.00 | 33 | 1017.1 |
| 20260508030359 | 65 | 188 | 2.6 | 6.1 | 0.00 | 0.00 | 0.00 | 33 | 1016.8 |
| 20260508025856 | 65 | 158 | 2.6 | 6.1 | 0.00 | 0.00 | 0.00 | 33 | 1016.8 |
| 20260508025352 | 65 | 218 | 2.6 | 5.2 | 0.00 | 0.00 | 0.00 | 32 | 1017.0 |
| 20260508024849 | 66 | 168 | 3.5 | 5.2 | 0.00 | 0.00 | 0.00 | 32 | 1017.0 |
| 20260508024347 | 66 | 238 | 1.7 | 5.2 | 0.00 | 0.00 | 0.00 | 32 | 1016.8 |
| 20260508023843 | 66 | 159 | 2.6 | 5.2 | 0.00 | 0.00 | 0.00 | 32 | 1016.7 |
| 20260508023340 | 66 | 191 | 2.6 | 3.5 | 0.00 | 0.00 | 0.00 | 31 | 1016.6 |
| 20260508022837 | 67 | 129 | 2.6 | 3.5 | 0.00 | 0.00 | 0.00 | 31 | 1016.7 |
| 20260508022332 | 67 | 132 | 2.6 | 5.2 | 0.00 | 0.00 | 0.00 | 31 | 1016.7 |
| 20260508021830 | 68 | 200 | 2.6 | 6.1 | 0.00 | 0.00 | 0.00 | 30 | 1016.4 |
| 20260508021325 | 68 | 186 | 2.6 | 5.2 | 0.00 | 0.00 | 0.00 | 30 | 1016.5 |
| 20260508020822 | 69 | 239 | 1.7 | 5.2 | 0.00 | 0.00 | 0.00 | 29 | 1016.4 |
| 20260508020320 | 69 | 268 | 3.5 | 7.0 | 0.00 | 0.00 | 0.00 | 29 | 1016.3 |
| 20260508015816 | 69 | 194 | 1.7 | 7.8 | 0.00 | 0.00 | 0.00 | 29 | 1016.3 |
| 20260508015314 | 70 | 195 | 3.5 | 7.0 | 0.00 | 0.00 | 0.00 | 28 | 1016.2 |
| 20260508014811 | 70 | 162 | 4.3 | 7.8 | 0.00 | 0.00 | 0.00 | 28 | 1016.3 |
| 20260508014308 | 71 | 175 | 5.2 | 7.0 | 0.00 | 0.00 | 0.00 | 28 | 1016.2 |
| 20260508013803 | 71 | 188 | 3.5 | 7.0 | 0.00 | 0.00 | 0.00 | 27 | 1016.3 |
| 20260508013259 | 71 | 162 | 0.9 | 3.5 | 0.00 | 0.00 | 0.00 | 27 | 1016.2 |
| 20260508012757 | 72 | 216 | 1.7 | 6.1 | 0.00 | 0.00 | 0.00 | 26 | 1016.1 |
| 20260508012254 | 73 | 187 | 3.5 | 3.5 | 0.00 | 0.00 | 0.00 | 25 | 1016.1 |
| 20260508011752 | 73 | 231 | 1.7 | 3.5 | 0.00 | 0.00 | 0.00 | 23 | 1016.2 |
| 20260508011249 | 74 | 164 | 3.5 | 7.0 | 0.00 | 0.00 | 0.00 | 22 | 1016.1 |
| 20260508010746 | 74 | 194 | 4.3 | 6.1 | 0.00 | 0.00 | 0.00 | 21 | 1015.9 |
| 20260508010244 | 75 | 219 | 1.7 | 5.2 | 0.00 | 0.00 | 0.00 | 21 | 1015.8 |
| 20260508005741 | 75 | 232 | 4.3 | 7.0 | 0.00 | 0.00 | 0.00 | 20 | 1016.1 |
| 20260508005238 | 75 | 247 | 1.7 | 3.5 | 0.00 | 0.00 | 0.00 | 20 | 1015.9 |
| 20260508004733 | 75 | 225 | 3.5 | 5.2 | 0.00 | 0.00 | 0.00 | 20 | 1016.1 |
| 20260508004230 | 76 | 265 | 5.2 | 8.7 | 0.00 | 0.00 | 0.00 | 19 | 1015.8 |
| 20260508003726 | 75 | 280 | 3.5 | 7.0 | 0.00 | 0.00 | 0.00 | 20 | 1015.9 |
| 20260508003224 | 76 | 180 | 3.5 | 6.1 | 0.00 | 0.00 | 0.00 | 20 | 1016.1 |
| 20260508002720 | 75 | 227 | 0.9 | 5.2 | 0.00 | 0.00 | 0.00 | 20 | 1016.1 |
| 20260508002218 | 76 | 209 | 1.7 | 7.0 | 0.00 | 0.00 | 0.00 | 20 | 1016.3 |
| 20260508001713 | 76 | 180 | 4.3 | 8.7 | 0.00 | 0.00 | 0.00 | 20 | 1016.1 |
| 20260508001209 | 76 | 242 | 1.7 | 5.2 | 0.00 | 0.00 | 0.00 | 20 | 1016.2 |
| 20260508000706 | 77 | 233 | 1.7 | 6.1 | 0.00 | 0.00 | 0.00 | 20 | 1016.2 |
| 20260508000204 | 76 | 321 | 3.5 | 8.7 | 0.00 | 0.00 | 0.00 | 20 | 1016.1 |
| 20260507235659 | 76 | 236 | 5.2 | 9.6 | 0.00 | 0.00 | 0.00 | 19 | 1016.1 |
| 20260507235157 | 77 | 215 | 4.3 | 11.3 | 0.00 | 0.00 | 0.00 | 19 | 1016.1 |
| 20260507234653 | 77 | 266 | 5.2 | 8.7 | 0.00 | 0.00 | 0.00 | 20 | 1016.1 |
| 20260507234150 | 77 | 263 | 1.7 | 5.2 | 0.00 | 0.00 | 0.00 | 20 | 1016.2 |
| 20260507233647 | 77 | 258 | 0.9 | 7.0 | 0.00 | 0.00 | 0.00 | 20 | 1016.1 |
| 20260507233145 | 76 | 248 | 1.7 | 2.6 | 0.00 | 0.00 | 0.00 | 20 | 1016.2 |
| 20260507232641 | 76 | 215 | 4.3 | 6.1 | 0.00 | 0.00 | 0.00 | 21 | 1016.5 |
| 20260507232139 | 76 | 166 | 5.2 | 9.6 | 0.00 | 0.00 | 0.00 | 21 | 1016.4 |
| 20260507231635 | 76 | 244 | 5.2 | 8.7 | 0.00 | 0.00 | 0.00 | 21 | 1016.3 |
| 20260507231132 | 78 | 218 | 3.5 | 7.8 | 0.00 | 0.00 | 0.00 | 22 | 1016.4 |
| 20260507230628 | 77 | 291 | 2.6 | 7.0 | 0.00 | 0.00 | 0.00 | 22 | 1016.3 |
| 20260507230126 | 77 | 196 | 6.1 | 7.8 | 0.00 | 0.00 | 0.00 | 21 | 1016.3 |
| 20260507225626 | 77 | 255 | 1.7 | 3.5 | 0.00 | 0.00 | 0.00 | 22 | 1016.4 |
| 20260507225123 | 77 | 255 | 3.5 | 5.2 | 0.00 | 0.00 | 0.00 | 23 | 1016.5 |
| 20260507224618 | 78 | 199 | 2.6 | 5.2 | 0.00 | 0.00 | 0.00 | 22 | 1016.5 |
| 20260507224115 | 78 | 225 | 0.9 | 5.2 | 0.00 | 0.00 | 0.00 | 21 | 1016.5 |
| 20260507223611 | 76 | 235 | 3.5 | 5.2 | 0.00 | 0.00 | 0.00 | 23 | 1016.7 |
| 20260507223108 | 76 | 245 | 5.2 | 7.0 | 0.00 | 0.00 | 0.00 | 24 | 1016.5 |
| 20260507222605 | 76 | 226 | 6.1 | 8.7 | 0.00 | 0.00 | 0.00 | 24 | 1016.8 |